"Pseudo-MPEC" for P21juMm

Created 2021 Sep 15 13:07:24 UT using Find_Orb

Click here for an explanation of pseudo-MPECs

 
 Astrometry: 
     P21juMm  C2021 08 22@OcQAstrometryv.k^redacted;P=qGU'ejyjP34Zx\[K;I7wS1cF52
     P21juMm  C2021 08 22J.;UclickL2V'muKle%\X6q),tt)M,0jIfnW'#)mYe`.6Stl2NODF52
     P21juMm  C2021 08 22d'herepOTbdF1*oh2LL%`k@n'sht_#*'forW1Q`3+cOIc`T2)@_/F52
     P21juMm  C2021 08 24yE?m[l\/Rxf\Yxm1^[!0f?KtexplanationQ.:j=9iqY],K?#q\9F51
     P21juMm  C2021 08 24QZ-?BXtRx9Wrkef5(%S9b`'VBxl5)MBEFX@q04N)YnInvOs*B[DaF51

Station data:
(F51) Pan-STARRS 1, Haleakala  (N20.707235 W156.255910)  US/Hawaii.
   Observers N. Primak, A. Schultz, S. Watters, J. Thiel, T. Goggia. Measurer
   PS1 Science Consortium. 1.8-m Ritchey-Chrétien + CCD.
(F52) Pan-STARRS 2, Haleakala  (N20.707384 W156.255910)  US/Hawaii. 1.8-m
   Ritchey-Chrétien + CCD.

Orbital elements:  P21juMm
   Perihelion 2023 Apr 18.533423 +/- 177.033 TT = 12:48:07 (JD 2460053.033423)
Epoch 2021 Aug 24.0 TT = JDT 2459450.5                        AutoNEOCP
M 203.35302960 +/- 102.28186        (J2000 ecliptic)
n   0.25998054 +/- 0.341936         Peri.  107.12383 +/- 79.146565
a   2.43132012 +/- 2.1318           Node    82.66618 +/- 23.536917
e   0.0479474 +/- 0.244232          Incl.    4.97525 +/- 11.825729
P   3.79                   H 16.4   G  0.15   U 12.0  SR
q 2.31474443 +/- 0.970088    Q 2.54789581 +/- 25.1786
From 5 observations 2021 Aug. 22-24; mean residual 0".10
Residuals in arcseconds: 
210822 F52  .08-  .15-    210822 F52  .00   .14+    210824 F51  .15+  .04+    
210822 F52  .09+  .02+    210824 F51  .15-  .04-    

Ephemerides (geocentric):
Date (UTC) HH   RA              Dec         delta   r     elong  mag " sig PA
---- -- -- --  -------------   -----------  ------ ------ -----  --- ---- ---
2021 09 15 13  03 46 05.210   +15 04 38.44  1.9420 2.5343 114.8 20.9 2835 169
2021 09 15 14  03 46 05.963   +15 04 39.48  1.9415 2.5343 114.9 20.9 2846 169
2021 09 15 15  03 46 06.713   +15 04 40.51  1.9411 2.5343 114.9 20.9 2857 169
2021 09 15 16  03 46 07.460   +15 04 41.52  1.9406 2.5343 114.9 20.9 2868 169
2021 09 15 17  03 46 08.205   +15 04 42.53  1.9401 2.5343 115.0 20.9 2878 169
2021 09 15 18  03 46 08.946   +15 04 43.54  1.9396 2.5343 115.0 20.9 2889 169
2021 09 15 19  03 46 09.686   +15 04 44.53  1.9391 2.5343 115.1 20.9 2900 169
2021 09 15 20  03 46 10.422   +15 04 45.52  1.9386 2.5343 115.1 20.9 2911 169
2021 09 15 21  03 46 11.156   +15 04 46.50  1.9381 2.5342 115.1 20.9 2922 169
2021 09 15 22  03 46 11.887   +15 04 47.47  1.9376 2.5342 115.2 20.9 2933 169
2021 09 15 23  03 46 12.615   +15 04 48.43  1.9371 2.5342 115.2 20.9 2944 169
2021 09 16 00  03 46 13.340   +15 04 49.39  1.9366 2.5342 115.2 20.9 2955 169
2021 09 16 01  03 46 14.063   +15 04 50.34  1.9362 2.5342 115.3 20.9 2966 169
2021 09 16 02  03 46 14.783   +15 04 51.28  1.9357 2.5342 115.3 20.9 2977 169
2021 09 16 03  03 46 15.500   +15 04 52.21  1.9352 2.5342 115.4 20.9 2988 169
2021 09 16 04  03 46 16.215   +15 04 53.13  1.9347 2.5342 115.4 20.9 2999 169
2021 09 16 05  03 46 16.927   +15 04 54.05  1.9342 2.5342 115.4 20.9 3010 169
2021 09 16 06  03 46 17.636   +15 04 54.95  1.9337 2.5342 115.5 20.9 3021 169
2021 09 16 07  03 46 18.342   +15 04 55.85  1.9332 2.5341 115.5 20.9 3032 169
2021 09 16 08  03 46 19.045   +15 04 56.75  1.9327 2.5341 115.5 20.9 3043 169
2021 09 16 09  03 46 19.746   +15 04 57.63  1.9322 2.5341 115.6 20.9 3054 169
2021 09 16 10  03 46 20.444   +15 04 58.51  1.9318 2.5341 115.6 20.9 3066 169
2021 09 16 11  03 46 21.140   +15 04 59.37  1.9313 2.5341 115.7 20.9 3077 169
2021 09 16 12  03 46 21.832   +15 05 00.23  1.9308 2.5341 115.7 20.9 3088 169
2021 09 16 13  03 46 22.522   +15 05 01.09  1.9303 2.5341 115.7 20.8 3099 169
2021 09 16 14  03 46 23.209   +15 05 01.93  1.9298 2.5341 115.8 20.8 3111 169
2021 09 16 15  03 46 23.894   +15 05 02.77  1.9293 2.5341 115.8 20.8 3122 169
2021 09 16 16  03 46 24.575   +15 05 03.60  1.9288 2.5341 115.8 20.8 3133 169
2021 09 16 17  03 46 25.254   +15 05 04.42  1.9283 2.5340 115.9 20.8 3144 169
2021 09 16 18  03 46 25.930   +15 05 05.23  1.9279 2.5340 115.9 20.8 3156 169
2021 09 16 19  03 46 26.604   +15 05 06.03  1.9274 2.5340 116.0 20.8 3167 169
2021 09 16 20  03 46 27.274   +15 05 06.83  1.9269 2.5340 116.0 20.8 3179 169
2021 09 16 21  03 46 27.942   +15 05 07.62  1.9264 2.5340 116.0 20.8 3190 169
2021 09 16 22  03 46 28.607   +15 05 08.40  1.9259 2.5340 116.1 20.8 3202 169
2021 09 16 23  03 46 29.269   +15 05 09.18  1.9254 2.5340 116.1 20.8 3213 169
2021 09 17 00  03 46 29.929   +15 05 09.94  1.9249 2.5340 116.1 20.8 3224 169
2021 09 17 01  03 46 30.586   +15 05 10.70  1.9245 2.5340 116.2 20.8 3236 169
2021 09 17 02  03 46 31.240   +15 05 11.45  1.9240 2.5340 116.2 20.8 3248 169
2021 09 17 03  03 46 31.891   +15 05 12.19  1.9235 2.5339 116.3 20.8 3259 169
2021 09 17 04  03 46 32.540   +15 05 12.92  1.9230 2.5339 116.3 20.8 3271 169
2021 09 17 05  03 46 33.185   +15 05 13.65  1.9225 2.5339 116.3 20.8 3282 169
2021 09 17 06  03 46 33.828   +15 05 14.37  1.9220 2.5339 116.4 20.8 3294 169
2021 09 17 07  03 46 34.469   +15 05 15.08  1.9215 2.5339 116.4 20.8 3306 169
2021 09 17 08  03 46 35.106   +15 05 15.78  1.9211 2.5339 116.4 20.8 3317 169
2021 09 17 09  03 46 35.741   +15 05 16.47  1.9206 2.5339 116.5 20.8 3329 169
2021 09 17 10  03 46 36.373   +15 05 17.16  1.9201 2.5339 116.5 20.8 3341 169
2021 09 17 11  03 46 37.002   +15 05 17.84  1.9196 2.5339 116.6 20.8 3352 169
2021 09 17 12  03 46 37.628   +15 05 18.51  1.9191 2.5339 116.6 20.8 3364 169